CZ-6A DEB, 54624

Orbit data source: Space-Track

CZ-6A DEB, 54624 is space debris in SSO originally from a launch on Fri, 11 Nov 2022 UTC launched from the Taiyaun Space Center, China (TSC). Debris objects in space refer to the collection of defunct objects orbiting the Earth. Examples of debris include non-operational satellites, rocket bodies, and fragments generated from explosions, collisions, or faulty payload assembly.

Loading next visibility...
Identifier
54624, 2022-151PA
Orbit
SSO
Country
Flag of CNCN / PRC
Related business
Manufacturer
SAST
Mission
Spacecraft
Bus & Motor
Unknown
Mass
Unknown
Launch date (UTC)
2022-11-11 (3 years ago)
Launch vehicle
Unknown
Launch site
Taiyaun Space Center, China (TSC)
Object type
Payload
Rocket body
Debris
Shape & HBR
Unknown shape, 0.1 m
Radar Cross Section
Small (<0.1 m²)

Expand to show TLE details & history
Last TLE update: 10 hours ago

TLE from 10 hours ago
0 CZ-6A DEB
1 54624U 22151PA  26130.42175403  .00000416  00000-0  32041-3 0  9994
2 54624  98.9366 106.4750 0123955 192.2814 167.5319 13.94849082176474
Epoch: 2026-05-10T10:07Z
TLE epoch observation values (Epoch: 2026-05-10T10:07:19.548Z)
Latitude
0.00001°
Longitude
86.41848°
Altitude
1,002.858 km
Speed
7.306 km/s
True Right ascension
07h 05m 53s
True Declination
0° 00' 00"
Sunlit
Object was in daylight at epoch
Visualization orbit readout
Latitude
Unknown
Longitude
Unknown
Altitude
Unknown
Speed
Unknown
Apparent Right ascension
Unknown
Apparent Declination
Unknown
Sunlit
N/A
Visualization observer readout
Local Sidereal Time
04:37:13
Azimuth
Unknown
Elevation
Unknown
Doppler factor
Unknown
Orbital elements
Apogee altitude
999.216 km
Perigee altitude
818.563 km
Semi-major axis
7,287.026 km
Eccentricity
0.0124
Inclination
98.9366°
RAAN
106.475°
Arg. of periapsis
192.2814°
True anomaly
167.83399°
Mean anomaly
167.5319°
Eccentric anomaly
167.6834°
Mean motion
3.48913 °/min
Orbital period
103.18 mins
BSTAR
0.00032041
Loading maneuver chart data...
Computing Atmospheric mass density...
Loading historical data...
Loading historical data...
Loading historical data...
Loading historical data...
Loading historical data...
Loading historical data...
Loading historical data...

Documentation

Showing up to 5 results
|